User: anonymous   Login
Location: Unspecified
(0.0000°N, 0.0000°E)
Time: 18:10:13
(UTC+00:00)
Language:

STARLINK-32430 - Orbit

View from above orbital plane
View from above orbital plane
View from above satellite
View from above satellite

Ground track
Ground track

The orbit is defined by the following mean orbital elements,

1 62207U          26145.41568338 +.00000000 +00000-0 +51696-3 0 00006
2 62207  42.9979 194.1179 0001295 268.1318  91.9385 15.27591282    04
Epoch (UTC): 25 May 2026 09:58:35
Eccentricity: 0.0001295
inclination: 42.9979°
perigee height: 482 km
apogee height: 484 km
right ascension of ascending node: 194.1179°
argument of perigee: 268.1318°
revolutions per day: 15.27591282
mean anomaly at epoch: 91.9385°

The dashed part of the orbit path shows where the satellite is in the earth's shadow,  

DLR